Flag for Mexico Weather past 2 weeks in Playa del Carmen, Quintana Roo, Mexico

Now
73 °F

Broken clouds.


Feels Like: 76 °F
Forecast: 74 / 81 °F
Wind: 10 mph from Northeast

Location: Cozumel Civ / Mil

Current Time: Mar 28, 2015 at 8:19:33 PM

Latest Report: Mar 28, 2015 at 6:53 PM


Visibility: 7 mi

Pressure: 30.07 "Hg

Humidity: 69%

Dew point: 63 °F

Location of Playa del CarmenLocation

Historic Weather in Playa del Carmen — Graph

°F

Playa del Carmen temperature yesterday

Maximum temperature yesterday: 84 °F (at 11:46 AM)
Minimum temperature yesterday: 68 °F (at 5:44 PM)
Average temperature yesterday: 73 °F

Past Weeks' High & Low Weather Summary

 TemperatureHumidityPressure
High84 °F (Mar 18, 3:46 PM)100% (Mar 14, 2:51 AM)30.16 "Hg (Mar 14, 2:51 AM)
Low61 °F (Mar 22, 6:52 AM)55% (Mar 18, 3:46 PM)29.84 "Hg (Mar 20, 3:50 AM)
Average73 °F87%30.03 "Hg
* Reported Mar 13 7:45 PM — Mar 28 6:53 PM, Playa del Carmen, Weather by CustomWeather, © 2015

Note: Actual official high and low records may vary slightly from our data, if they occured in-between our weather recording intervals... More about our weather records

Advertising

Playa del Carmen weather history for previous 24 hours

 ConditionsComfort  
Time TempWeatherWind HumidityBarometerVisibility
6:53 PM
Sat, Mar 28
73 °FBroken clouds.10 mph69%30.07 "Hg7 mi
5:45 PM73 °FBroken clouds.14 mph74%30.10 "Hg8 mi
4:42 PM75 °FBroken clouds.16 mph69%30.09 "Hg8 mi
3:46 PM75 °FBroken clouds.17 mph69%30.11 "Hg8 mi
1:43 PM75 °FBroken clouds.15 mph69%30.12 "Hg8 mi
12:46 PM75 °FCloudy.14 mph69%30.12 "Hg8 mi
11:41 AM75 °FBroken clouds.13 mph74%30.15 "Hg8 mi
10:45 AM75 °FBroken clouds.13 mph74%30.12 "Hg8 mi
9:47 AM75 °FBroken clouds.15 mph74%30.14 "Hg8 mi
8:48 AM73 °FCloudy.8 mph89%30.10 "Hg7 mi
7:54 AM72 °FMostly cloudy.9 mph88%30.08 "Hg7 mi
6:49 AM72 °FMostly cloudy.13 mph94%30.04 "Hg7 mi
5:45 AM70 °FPartly cloudy.9 mph94%30.03 "Hg7 mi
5:10 AM72 °FPassing clouds.18 mph100%30.03 "Hg7 mi
3:02 AM72 °FPassing clouds.13 mph100%30.01 "Hg7 mi
1:52 AM72 °FPassing clouds.16 mph100%30.02 "Hg7 mi
12:51 AM72 °FPassing clouds.15 mph100%30.02 "Hg7 mi
11:58 PM
Fri, Mar 27
72 °FPassing clouds.13 mph100%30.05 "Hg7 mi
9:53 PM70 °FPartly cloudy.No wind100%30.07 "Hg7 mi
8:51 PM68 °FPartly cloudy.No wind100%30.04 "Hg7 mi
Weather by CustomWeather, © 2015

See weather overviewHow to use our weather pages